KD4IZ-13 Weather Reports


time (UTC)temp
C
wind
direction
speed
KPH
gust
KPH
rain 1hr
cm
rain 24hr
cm
rain mn
cm
humidity
%
barometer
mb
20260505190133 26 195 8.0 14.5 0.00 0.00 0.00 41 1011.3
20260505185630 26 229 19.3 24.1 0.00 0.00 0.00 42 1011.5
20260505185126 26 225 20.9 25.7 0.00 0.00 0.00 41 1011.5
20260505184623 26 254 9.7 14.5 0.00 0.00 0.00 43 1011.6
20260505184120 26 238 8.0 12.9 0.00 0.00 0.00 41 1011.5
20260505183617 26 265 14.5 20.9 0.00 0.00 0.00 41 1011.7
20260505183114 26 245 12.9 20.9 0.00 0.00 0.00 40 1011.6
20260505182610 26 237 14.5 16.1 0.00 0.00 0.00 40 1012.0
20260505182107 26 221 22.5 32.2 0.00 0.00 0.00 40 1011.6
20260505181604 26 260 12.9 16.1 0.00 0.00 0.00 41 1011.8
20260505181101 26 228 20.9 27.4 0.00 0.00 0.00 40 1012.0
20260505180556 26 277 20.9 32.2 0.00 0.00 0.00 42 1011.9
20260505180055 26 223 12.9 12.9 0.00 0.00 0.00 43 1011.9
20260505175550 26 217 17.7 22.5 0.00 0.00 0.00 41 1012.1
20260505175047 26 334 6.4 8.0 0.00 0.00 0.00 43 1012.2
20260505174544 26 219 22.5 27.4 0.00 0.00 0.00 42 1012.0
20260505174040 25 272 6.4 11.3 0.00 0.00 0.00 44 1012.3
20260505173537 26 241 11.3 16.1 0.00 0.00 0.00 45 1012.2
20260505173033 26 195 19.3 22.5 0.00 0.00 0.00 45 1012.3
20260505172531 26 225 17.7 22.5 0.00 0.00 0.00 45 1012.2
20260505172027 26 221 14.5 17.7 0.00 0.00 0.00 46 1012.1
20260505171522 25 256 12.9 14.5 0.00 0.00 0.00 47 1012.4
20260505171020 25 225 19.3 29.0 0.00 0.00 0.00 45 1012.4
20260505170516 25 247 6.4 8.0 0.00 0.00 0.00 49 1012.5
20260505170013 25 155 12.9 14.5 0.00 0.00 0.00 48 1012.6
20260505165508 25 326 8.0 12.9 0.00 0.00 0.00 51 1012.7
20260505165004 25 217 14.5 17.7 0.00 0.00 0.00 47 1012.6
20260505164500 26 282 8.0 12.9 0.00 0.00 0.00 48 1012.8
20260505163958 25 270 16.1 33.8 0.00 0.00 0.00 47 1012.8
20260505163457 25 187 9.7 14.5 0.00 0.00 0.00 47 1013.0
20260505162956 25 264 19.3 25.7 0.00 0.00 0.00 49 1012.8
20260505162451 25 227 14.5 20.9 0.00 0.00 0.00 47 1013.1
20260505161948 25 244 9.7 14.5 0.00 0.00 0.00 47 1012.8
20260505161444 25 245 11.3 16.1 0.00 0.00 0.00 50 1012.8
20260505160942 25 198 14.5 16.1 0.00 0.00 0.00 48 1012.8
20260505160440 25 240 12.9 14.5 0.00 0.00 0.00 49 1013.1
20260505152910 25 259 8.0 11.3 0.00 0.00 0.00 51 1012.8
20260505152407 25 250 14.5 17.7 0.00 0.00 0.00 49 1013.0
20260505151902 24 243 11.3 12.9 0.00 0.00 0.00 53 1012.9
20260505151358 25 260 11.3 14.5 0.00 0.00 0.00 49 1012.7
20260505150855 24 253 17.7 22.5 0.00 0.00 0.00 49 1012.9
20260505150352 24 225 11.3 14.5 0.00 0.00 0.00 51 1013.0
20260505140311 22 196 6.4 9.7 0.00 0.00 0.00 59 1013.1
20260505130235 18 259 12.9 16.1 0.00 0.00 0.00 65 1013.9
20260505124725 18 278 6.4 9.7 0.00 0.00 0.00 67 1013.9
20260505124222 17 230 3.2 3.2 0.00 0.00 0.00 69 1013.8
20260505123717 17 257 9.7 11.3 0.00 0.00 0.00 68 1013.8
20260505123215 17 239 8.0 11.3 0.00 0.00 0.00 68 1013.9
20260505122711 17 244 8.0 8.0 0.00 0.00 0.00 69 1013.9
20260505122209 17 180 9.7 11.3 0.00 0.00 0.00 69 1013.9
20260505121705 17 236 14.5 17.7 0.00 0.00 0.00 68 1014.0
20260505121201 16 231 9.7 12.9 0.00 0.00 0.00 69 1013.9
20260505120658 16 209 9.7 12.9 0.00 0.00 0.00 70 1013.8
20260505120153 16 240 6.4 8.0 0.00 0.00 0.00 71 1013.4
20260505115647 16 244 6.4 9.7 0.00 0.00 0.00 71 1013.7
20260505115146 16 247 11.3 12.9 0.00 0.00 0.00 71 1013.7
20260505114643 15 236 11.3 14.5 0.00 0.00 0.00 72 1013.6
20260505114139 15 261 6.4 9.7 0.00 0.00 0.00 74 1013.5
20260505113635 15 258 4.8 4.8 0.00 0.00 0.00 74 1013.6
20260505113132 15 270 9.7 11.3 0.00 0.00 0.00 74 1013.4
20260505112628 15 269 8.0 11.3 0.00 0.00 0.00 74 1013.5
20260505112126 15 234 14.5 16.1 0.00 0.00 0.00 74 1013.4
20260505111620 15 238 11.3 12.9 0.00 0.00 0.00 74 1013.1
20260505111116 15 283 8.0 11.3 0.00 0.00 0.00 74 1013.1
20260505110612 15 262 6.4 8.0 0.00 0.00 0.00 75 1013.0
20260505110110 15 245 6.4 8.0 0.00 0.00 0.00 76 1012.9
20260505102045 14 230 6.4 8.0 0.00 0.00 0.00 77 1012.3
20260505101544 14 241 3.2 3.2 0.00 0.00 0.00 77 1012.5
20260505101040 15 256 9.7 12.9 0.00 0.00 0.00 76 1012.5
20260505100536 15 225 4.8 8.0 0.00 0.00 0.00 75 1012.3
20260505100033 15 254 8.0 9.7 0.00 0.00 0.00 76 1012.6
20260505095530 15 241 9.7 14.5 0.00 0.00 0.00 75 1012.5
20260505095026 15 234 8.0 9.7 0.00 0.00 0.00 75 1012.4
20260505094523 15 226 8.0 9.7 0.00 0.00 0.00 75 1012.2
20260505094019 15 261 8.0 9.7 0.00 0.00 0.00 75 1012.4
20260505093515 15 247 8.0 11.3 0.00 0.00 0.00 75 1012.2
20260505093013 15 254 4.8 4.8 0.00 0.00 0.00 75 1012.2
20260505092510 15 277 8.0 9.7 0.00 0.00 0.00 75 1012.4
20260505092009 15 265 4.8 8.0 0.00 0.00 0.00 75 1012.2
20260505091505 15 280 4.8 4.8 0.00 0.00 0.00 75 1012.2
20260505091003 15 246 4.8 4.8 0.00 0.00 0.00 74 1012.2
20260505090501 15 240 6.4 8.0 0.00 0.00 0.00 74 1012.0
20260505085958 15 219 8.0 9.7 0.00 0.00 0.00 74 1012.1
20260505085456 15 261 4.8 4.8 0.00 0.00 0.00 74 1012.0
20260505084954 15 297 1.6 3.2 0.00 0.00 0.00 73 1012.2
20260505084452 15 223 1.6 3.2 0.00 0.00 0.00 72 1012.1
20260505083949 16 243 4.8 4.8 0.00 0.00 0.00 72 1012.2
20260505083447 16 265 3.2 3.2 0.00 0.00 0.00 72 1012.2
20260505082943 16 256 3.2 3.2 0.00 0.00 0.00 71 1012.2
20260505082439 16 227 4.8 4.8 0.00 0.00 0.00 72 1012.1
20260505081936 16 45 1.6 1.6 0.00 0.00 0.00 71 1012.3
20260505081433 16 193 6.4 9.7 0.00 0.00 0.00 71 1012.0
20260505080929 16 300 3.2 3.2 0.00 0.00 0.00 72 1012.1
20260505080425 16 321 3.2 3.2 0.00 0.00 0.00 71 1012.0
20260505075921 16 173 3.2 3.2 0.00 0.00 0.00 73 1012.0
20260505075418 15 243 4.8 4.8 0.00 0.00 0.00 73 1012.0
20260505074915 16 233 3.2 3.2 0.00 0.00 0.00 73 1012.0
20260505074412 16 149 1.6 3.2 0.00 0.00 0.00 72 1012.1
20260505073909 16 221 8.0 9.7 0.00 0.00 0.00 71 1011.7
20260505073407 16 216 4.8 4.8 0.00 0.00 0.00 72 1011.8
20260505072904 16 206 9.7 11.3 0.00 0.00 0.00 72 1011.7
20260505072400 16 255 6.4 8.0 0.00 0.00 0.00 72 1011.7
20260505071856 16 251 6.4 8.0 0.00 0.00 0.00 72 1011.8
20260505071353 16 228 3.2 3.2 0.00 0.00 0.00 72 1011.8
20260505070851 15 278 3.2 3.2 0.00 0.00 0.00 72 1011.6
20260505070347 16 230 3.2 3.2 0.00 0.00 0.00 72 1011.9
20260505065842 15 263 3.2 3.2 0.00 0.00 0.00 73 1012.1
20260505065340 16 115 0.0 1.6 0.00 0.00 0.00 73 1012.0
20260505064837 16 112 1.6 1.6 0.00 0.00 0.00 72 1011.8
20260505064334 16 111 0.0 0.0 0.00 0.00 0.00 72 1012.1
20260505063832 16 260 3.2 3.2 0.00 0.00 0.00 71 1012.0
20260505063327 16 109 0.0 1.6 0.00 0.00 0.00 71 1011.9
20260505062824 16 174 1.6 3.2 0.00 0.00 0.00 70 1012.2
20260505062322 16 144 1.6 3.2 0.00 0.00 0.00 71 1012.0
20260505061818 16 247 4.8 4.8 0.00 0.00 0.00 70 1011.9
20260505061317 17 255 4.8 4.8 0.00 0.00 0.00 69 1011.9
20260505060814 17 284 3.2 3.2 0.00 0.00 0.00 69 1011.8
20260505060311 17 255 4.8 4.8 0.00 0.00 0.00 69 1012.0
20260505055806 17 228 3.2 3.2 0.00 0.00 0.00 69 1012.1
20260505055303 17 258 4.8 8.0 0.00 0.00 0.00 68 1012.2
20260505054800 17 271 4.8 8.0 0.00 0.00 0.00 68 1012.0
20260505054257 17 216 8.0 9.7 0.00 0.00 0.00 68 1012.1
20260505053755 17 248 6.4 9.7 0.00 0.00 0.00 68 1012.1
20260505053252 17 218 6.4 8.0 0.00 0.00 0.00 68 1011.8
20260505052749 17 237 4.8 4.8 0.00 0.00 0.00 67 1012.0
20260505052246 17 261 6.4 8.0 0.00 0.00 0.00 67 1012.2
20260505051743 17 249 4.8 8.0 0.00 0.00 0.00 68 1012.1
20260505051241 17 254 8.0 9.7 0.00 0.00 0.00 67 1011.9
20260505050738 17 221 4.8 4.8 0.00 0.00 0.00 67 1012.1
20260505050237 17 221 8.0 11.3 0.00 0.00 0.00 66 1012.2
20260505041706 17 275 4.8 4.8 0.00 0.00 0.00 65 1011.9
20260505041204 16 265 6.4 8.0 0.00 0.00 0.00 65 1011.9
20260505040701 16 235 4.8 4.8 0.00 0.00 0.00 66 1011.9
20260505040158 17 202 4.8 4.8 0.00 0.00 0.00 65 1011.9
20260505035655 17 235 6.4 9.7 0.00 0.00 0.00 64 1011.7
20260505035151 16 246 6.4 8.0 0.00 0.00 0.00 64 1011.7
20260505034647 16 254 6.4 8.0 0.00 0.00 0.00 64 1011.6
20260505034145 16 262 4.8 4.8 0.00 0.00 0.00 64 1011.9
20260505033641 16 267 6.4 11.3 0.00 0.00 0.00 63 1011.8
20260505033139 16 251 6.4 8.0 0.00 0.00 0.00 63 1011.7
20260505032637 17 275 4.8 8.0 0.00 0.00 0.00 63 1011.8
20260505032133 17 271 4.8 4.8 0.00 0.00 0.00 62 1011.7
20260505031630 17 237 8.0 9.7 0.00 0.00 0.00 62 1011.7
20260505031126 17 265 3.2 3.2 0.00 0.00 0.00 62 1011.8
20260505030624 17 240 3.2 4.8 0.00 0.00 0.00 61 1011.7
20260505030119 17 185 1.6 3.2 0.00 0.00 0.00 62 1011.9
20260505025615 17 226 3.2 3.2 0.00 0.00 0.00 61 1011.9
20260505025114 17 209 3.2 3.2 0.00 0.00 0.00 61 1012.0
20260505024611 17 223 1.6 1.6 0.00 0.00 0.00 61 1011.8
20260505024109 17 257 3.2 3.2 0.00 0.00 0.00 61 1011.8
20260505023606 17 264 3.2 3.2 0.00 0.00 0.00 60 1011.9
20260505023103 17 244 3.2 4.8 0.00 0.00 0.00 60 1012.1
20260505022600 17 188 6.4 8.0 0.00 0.00 0.00 59 1011.9
20260505022057 17 254 4.8 4.8 0.00 0.00 0.00 59 1012.0
20260505021554 17 187 4.8 8.0 0.00 0.00 0.00 58 1012.1
20260505021051 17 213 4.8 4.8 0.00 0.00 0.00 59 1011.9
20260505020550 17 262 4.8 4.8 0.00 0.00 0.00 59 1011.9
20260505020048 17 260 3.2 3.2 0.00 0.00 0.00 59 1012.1
20260505015545 17 211 4.8 4.8 0.00 0.00 0.00 59 1012.0
20260505015041 17 160 1.6 1.6 0.00 0.00 0.00 59 1012.0
20260505014538 17 175 3.2 3.2 0.00 0.00 0.00 59 1011.8
20260505014036 18 176 3.2 3.2 0.00 0.00 0.00 58 1012.1
20260505013532 17 213 1.6 1.6 0.00 0.00 0.00 59 1012.1
20260505013030 18 127 1.6 1.6 0.00 0.00 0.00 58 1011.8
20260505012528 18 106 0.0 0.0 0.00 0.00 0.00 58 1011.6
20260505012025 18 158 4.8 4.8 0.00 0.00 0.00 57 1011.7
20260505011520 18 280 3.2 4.8 0.00 0.00 0.00 57 1011.7
20260505011018 18 119 4.8 4.8 0.00 0.00 0.00 57 1011.5
20260505010513 18 247 3.2 4.8 0.00 0.00 0.00 57 1011.4
20260505010010 18 85 0.0 1.6 0.00 0.00 0.00 57 1011.3
20260505005506 18 10 1.6 3.2 0.00 0.00 0.00 58 1011.2
20260505005004 18 239 4.8 4.8 0.00 0.00 0.00 58 1011.4
20260505004501 18 190 3.2 3.2 0.00 0.00 0.00 57 1011.4
20260505003958 18 257 3.2 3.2 0.00 0.00 0.00 58 1011.3
20260505003455 18 74 0.0 1.6 0.00 0.00 0.00 57 1011.3
20260505002950 18 170 6.4 8.0 0.00 0.00 0.00 56 1011.7
20260505002447 18 72 1.6 1.6 0.00 0.00 0.00 56 1011.3
20260505001945 18 203 4.8 4.8 0.00 0.00 0.00 55 1011.3
20260505001442 19 99 0.0 1.6 0.00 0.00 0.00 54 1011.3
20260505000939 19 224 4.8 4.8 0.00 0.00 0.00 53 1011.3
20260505000437 20 120 3.2 4.8 0.00 0.00 0.00 52 1011.3
20260504235934 20 51 1.6 1.6 0.00 0.00 0.00 51 1011.2
20260504235431 20 45 0.0 1.6 0.00 0.00 0.00 49 1011.3
20260504234927 21 303 3.2 4.8 0.00 0.00 0.00 47 1011.2
20260504234425 21 192 1.6 3.2 0.00 0.00 0.00 46 1010.9
20260504233921 21 182 9.7 11.3 0.00 0.00 0.00 46 1010.9
20260504233417 21 219 8.0 11.3 0.00 0.00 0.00 46 1011.1
20260504232914 21 189 4.8 4.8 0.00 0.00 0.00 46 1010.8
20260504232411 21 288 4.8 8.0 0.00 0.00 0.00 45 1011.0
20260504231908 22 187 4.8 4.8 0.00 0.00 0.00 45 1011.1
20260504231404 22 203 6.4 8.0 0.00 0.00 0.00 45 1011.0
20260504230901 22 149 8.0 9.7 0.00 0.00 0.00 45 1011.1
20260504230358 22 226 3.2 3.2 0.00 0.00 0.00 45 1011.3
20260504225857 22 128 1.6 3.2 0.00 0.00 0.00 45 1011.0
20260504225353 21 55 1.6 1.6 0.00 0.00 0.00 46 1011.2
20260504224851 22 126 6.4 8.0 0.00 0.00 0.00 45 1011.2
20260504224347 22 159 4.8 4.8 0.00 0.00 0.00 45 1011.4
20260504223844 22 190 11.3 16.1 0.00 0.00 0.00 44 1011.4
20260504223339 22 196 8.0 9.7 0.00 0.00 0.00 45 1011.4
20260504222836 22 292 4.8 8.0 0.00 0.00 0.00 45 1011.2
20260504222333 22 214 6.4 9.7 0.00 0.00 0.00 45 1011.0
20260504221832 22 226 6.4 8.0 0.00 0.00 0.00 45 1011.1
20260504221328 22 271 8.0 12.9 0.00 0.00 0.00 44 1011.2
20260504220825 22 165 8.0 9.7 0.00 0.00 0.00 44 1011.2
20260504220322 22 263 6.4 9.7 0.00 0.00 0.00 43 1011.2
20260504215819 23 245 12.9 16.1 0.00 0.00 0.00 44 1011.1
20260504215315 22 203 9.7 11.3 0.00 0.00 0.00 43 1011.1
20260504214811 22 242 8.0 11.3 0.00 0.00 0.00 45 1010.9
20260504214309 22 261 9.7 11.3 0.00 0.00 0.00 43 1011.1
20260504213805 22 292 4.8 9.7 0.00 0.00 0.00 44 1011.1
20260504213301 22 195 14.5 20.9 0.00 0.00 0.00 43 1011.3
20260504212758 22 256 12.9 14.5 0.00 0.00 0.00 44 1011.0
20260504212254 22 186 11.3 12.9 0.00 0.00 0.00 43 1011.1
20260504211752 22 222 6.4 9.7 0.00 0.00 0.00 44 1011.1
20260504211248 22 208 16.1 22.5 0.00 0.00 0.00 43 1011.2
20260504210746 22 246 17.7 20.9 0.00 0.00 0.00 43 1011.3
20260504210243 22 237 6.4 9.7 0.00 0.00 0.00 43 1011.3
20260504205739 22 209 14.5 20.9 0.00 0.00 0.00 43 1011.2
20260504205238 22 217 8.0 11.3 0.00 0.00 0.00 45 1011.1
20260504204736 22 209 16.1 20.9 0.00 0.00 0.00 47 1011.1
20260504204234 22 227 6.4 8.0 0.00 0.00 0.00 45 1011.3
20260504203733 22 234 12.9 14.5 0.00 0.00 0.00 44 1011.1
20260504203230 22 211 16.1 24.1 0.00 0.00 0.00 45 1011.2
20260504202729 22 254 11.3 12.9 0.00 0.00 0.00 44 1011.4
20260504202227 22 216 12.9 14.5 0.00 0.00 0.00 44 1011.6
20260504201724 22 257 12.9 17.7 0.00 0.00 0.00 45 1011.6
20260504201221 22 256 11.3 12.9 0.00 0.00 0.00 44 1011.4
20260504200719 22 201 8.0 11.3 0.00 0.00 0.00 44 1011.4
20260504200214 21 252 8.0 11.3 0.00 0.00 0.00 47 1011.7
20260504195711 22 262 11.3 16.1 0.00 0.00 0.00 48 1011.7
20260504195207 22 263 16.1 20.9 0.00 0.00 0.00 43 1011.9
20260504194704 21 283 8.0 9.7 0.00 0.00 0.00 43 1011.9
20260504194200 22 255 9.7 14.5 0.00 0.00 0.00 45 1012.1
20260504193657 22 217 14.5 17.7 0.00 0.00 0.00 45 1012.2
20260504193155 21 209 12.9 14.5 0.00 0.00 0.00 44 1012.3
20260504192652 21 271 9.7 12.9 0.00 0.00 0.00 45 1012.4
20260504192150 21 243 11.3 17.7 0.00 0.00 0.00 44 1012.5
20260504191648 21 267 8.0 9.7 0.00 0.00 0.00 44 1012.4
20260504191139 21 249 16.1 17.7 0.00 0.00 0.00 45 1012.5
20260504190635 21 230 14.5 17.7 0.00 0.00 0.00 47 1012.5